EZS5845 LFSB-EDDH

Flight info

Callsign EZS5845
Flight time 1h 9m
Altitude 37000
Route ELBEG Y715 HEUSE N851 TEDGO DCT HAREM DCT LOHRE DCT MASEK DCT ELNAT/N0452F360 P605 NOLGO NOLGO6A
Aircraft A320/M-SDE3FGHIRWY/LB1

Departure

Time 2026-04-21 18:01
Airport EuroAirport Basel–Mulhouse–Freiburg (LFSB)

Arrival

Time 2026-04-21 19:10
Airport Hamburg Helmut Schmidt Airport (EDDH)
Time Latitude Longitude Altitude Speed Heading
2026-04-21 17:42 47.59855 7.53043 894 ft 0 kts
2026-04-21 17:51 47.59854 7.53043 894 ft 1 kts
2026-04-21 17:51 47.59838 7.53041 894 ft 3 kts
2026-04-21 17:51 47.59818 7.53042 894 ft 3 kts 356°
2026-04-21 17:52 47.59798 7.53043 894 ft 3 kts
2026-04-21 17:52 47.59785 7.53040 894 ft 3 kts 69°
2026-04-21 17:52 47.59783 7.53040 894 ft 0 kts 103°
2026-04-21 17:55 47.59778 7.53074 893 ft 5 kts 102°
2026-04-21 17:55 47.59776 7.53086 894 ft 9 kts 104°
2026-04-21 17:55 47.59746 7.53122 894 ft 6 kts 161°
2026-04-21 17:56 47.59706 7.53144 894 ft 5 kts 167°
2026-04-21 17:56 47.59683 7.53114 894 ft 7 kts 240°
2026-04-21 17:56 47.59651 7.53016 894 ft 12 kts 244°
2026-04-21 17:56 47.59596 7.52847 893 ft 15 kts 236°
2026-04-21 17:57 47.59543 7.52830 892 ft 6 kts 161°
2026-04-21 17:57 47.59540 7.52832 892 ft 2 kts 160°
2026-04-21 17:57 47.59434 7.52906 894 ft 17 kts 154°
2026-04-21 17:57 47.59334 7.52975 894 ft 15 kts 154°
2026-04-21 17:58 47.59245 7.53036 895 ft 13 kts 155°
2026-04-21 17:58 47.59188 7.53138 887 ft 17 kts 79°
2026-04-21 17:58 47.59167 7.53229 895 ft 7 kts 122°
2026-04-21 17:58 47.59147 7.53308 888 ft 15 kts 79°
2026-04-21 17:59 47.59174 7.53483 887 ft 19 kts 76°
2026-04-21 17:59 47.59207 7.53682 887 ft 21 kts 77°
2026-04-21 17:59 47.59236 7.53869 887 ft 13 kts 77°
2026-04-21 17:59 47.59239 7.53889 887 ft 0 kts 77°
2026-04-21 18:00 47.59244 7.53928 887 ft 9 kts 84°
2026-04-21 18:00 47.59225 7.53999 887 ft 6 kts 122°
2026-04-21 18:00 47.59173 7.54038 889 ft 16 kts 217°
2026-04-21 18:00 47.59082 7.53511 889 ft 93 kts 257°
2026-04-21 18:01 47.58885 7.52247 900 ft 154 kts 260°
2026-04-21 18:01 47.58618 7.50688 1497 ft 154 kts 257°
2026-04-21 18:01 47.58327 7.49150 2245 ft 154 kts 257°
2026-04-21 18:01 47.58030 7.47527 2558 ft 173 kts 256°
2026-04-21 18:02 47.57720 7.45700 2837 ft 194 kts 257°
2026-04-21 18:02 47.57379 7.43632 3167 ft 220 kts 257°
2026-04-21 18:02 47.57010 7.41298 3574 ft 244 kts 257°
2026-04-21 18:02 47.56625 7.38723 4054 ft 268 kts 261°
2026-04-21 18:03 47.56710 7.35929 4796 ft 278 kts 288°
2026-04-21 18:03 47.57631 7.33468 5690 ft 279 kts 316°
2026-04-21 18:03 47.59221 7.31893 6630 ft 277 kts 344°
2026-04-21 18:03 47.61115 7.31582 7532 ft 275 kts 11°
2026-04-21 18:04 47.62898 7.32586 8427 ft 277 kts 36°
2026-04-21 18:04 47.64156 7.34637 9242 ft 283 kts 62°
2026-04-21 18:04 47.64746 7.37444 10049 ft 290 kts 78°
2026-04-21 18:04 47.65150 7.40477 10519 ft 310 kts 78°
2026-04-21 18:05 47.65578 7.43736 10821 ft 334 kts 78°
2026-04-21 18:05 47.66033 7.47199 11293 ft 348 kts 78°
2026-04-21 18:05 47.66504 7.50764 11983 ft 354 kts 77°
2026-04-21 18:05 47.66976 7.54311 12789 ft 357 kts 77°
2026-04-21 18:06 47.67459 7.57951 13592 ft 361 kts 77°
2026-04-21 18:06 47.67945 7.61616 14351 ft 363 kts 76°
2026-04-21 18:06 47.68433 7.65314 15042 ft 367 kts 77°
2026-04-21 18:06 47.68924 7.69056 15702 ft 372 kts 78°
2026-04-21 18:07 47.69422 7.72837 16381 ft 375 kts 77°
2026-04-21 18:07 47.70106 7.76578 17035 ft 377 kts 66°
2026-04-21 18:07 47.71032 7.80231 17690 ft 380 kts 66°
2026-04-21 18:07 47.71971 7.83924 18359 ft 384 kts 67°
2026-04-21 18:08 47.72919 7.87666 18916 ft 389 kts 67°
2026-04-21 18:08 47.73869 7.91445 19481 ft 393 kts 66°
2026-04-21 18:08 47.74827 7.95271 20031 ft 398 kts 66°
2026-04-21 18:08 47.75795 7.99147 20601 ft 402 kts 66°
2026-04-21 18:09 47.76773 8.03068 21172 ft 406 kts 66°
2026-04-21 18:09 47.77755 8.07019 21726 ft 409 kts 67°
2026-04-21 18:09 47.78858 8.10906 22282 ft 409 kts 57°
2026-04-21 18:09 47.80573 8.14254 22782 ft 404 kts 40°
2026-04-21 18:10 47.82642 8.17101 23330 ft 406 kts 38°
2026-04-21 18:10 47.84743 8.19931 23843 ft 409 kts 38°
2026-04-21 18:10 47.86869 8.22775 24258 ft 412 kts 37°
2026-04-21 18:10 47.89008 8.25641 24650 ft 415 kts 37°
2026-04-21 18:11 47.91162 8.28536 25037 ft 418 kts 37°
2026-04-21 18:11 47.93330 8.31453 25446 ft 421 kts 37°
2026-04-21 18:11 47.95481 8.34357 25827 ft 424 kts 37°
2026-04-21 18:11 47.97681 8.37337 26211 ft 427 kts 37°
2026-04-21 18:12 47.99883 8.40324 26586 ft 429 kts 37°
2026-04-21 18:12 48.02098 8.43332 26963 ft 432 kts 36°
2026-04-21 18:12 48.04492 8.45974 27311 ft 424 kts 22°
2026-04-21 18:12 48.07211 8.47559 27663 ft 416 kts
2026-04-21 18:13 48.10038 8.48484 28029 ft 416 kts
2026-04-21 18:13 48.12882 8.49376 28423 ft 418 kts
2026-04-21 18:13 48.15740 8.50258 28720 ft 421 kts
2026-04-21 18:13 48.18621 8.51145 29034 ft 424 kts
2026-04-21 18:14 48.24265 8.53384 29649 ft 438 kts 21°
2026-04-21 18:14 48.26838 8.55956 29945 ft 450 kts 33°
2026-04-21 18:14 48.29268 8.58938 30225 ft 453 kts 33°
2026-04-21 18:15 48.31829 8.61619 30458 ft 446 kts 22°
2026-04-21 18:15 48.34701 8.63229 30676 ft 438 kts
2026-04-21 18:15 48.37683 8.64154 30932 ft 437 kts
2026-04-21 18:15 48.40664 8.65054 31223 ft 436 kts
2026-04-21 18:16 48.43633 8.65946 31515 ft 436 kts
2026-04-21 18:16 48.46618 8.66841 31801 ft 436 kts
2026-04-21 18:16 48.49592 8.67736 32092 ft 436 kts
2026-04-21 18:16 48.52558 8.68631 32385 ft 435 kts
2026-04-21 18:17 48.55563 8.69541 32681 ft 435 kts
2026-04-21 18:17 48.58496 8.70432 32976 ft 435 kts
2026-04-21 18:17 48.61496 8.71345 33278 ft 435 kts
2026-04-21 18:17 48.64423 8.72235 33571 ft 434 kts
2026-04-21 18:18 48.67388 8.73141 33885 ft 434 kts
2026-04-21 18:18 48.70348 8.74047 34193 ft 434 kts
2026-04-21 18:18 48.73310 8.74952 34452 ft 434 kts
2026-04-21 18:18 48.76269 8.75856 34704 ft 435 kts
2026-04-21 18:19 48.79239 8.76767 34896 ft 436 kts
2026-04-21 18:19 48.82224 8.77679 35122 ft 437 kts
2026-04-21 18:19 48.85209 8.78591 35343 ft 437 kts
2026-04-21 18:19 48.88193 8.79507 35576 ft 437 kts
2026-04-21 18:20 48.91191 8.80431 35810 ft 437 kts
2026-04-21 18:20 48.94159 8.81348 36033 ft 437 kts
2026-04-21 18:20 48.97144 8.82269 36179 ft 438 kts
2026-04-21 18:21 49.03120 8.84116 36195 ft 438 kts
2026-04-21 18:21 49.09096 8.85969 36200 ft 438 kts
2026-04-21 18:22 49.15064 8.87826 36198 ft 438 kts
2026-04-21 18:22 49.21036 8.89681 36205 ft 438 kts
2026-04-21 18:23 49.27008 8.91544 36205 ft 438 kts
2026-04-21 18:23 49.32986 8.93415 36203 ft 438 kts
2026-04-21 18:24 49.38923 8.95272 36208 ft 438 kts
2026-04-21 18:24 49.44902 8.97157 36211 ft 438 kts
2026-04-21 18:25 49.50877 8.99054 36212 ft 438 kts
2026-04-21 18:25 49.56855 9.00947 36220 ft 438 kts
2026-04-21 18:26 49.62833 9.02842 36232 ft 438 kts
2026-04-21 18:26 49.68801 9.04729 36226 ft 438 kts
2026-04-21 18:27 49.74733 9.06607 36232 ft 438 kts 10°
2026-04-21 18:27 49.80707 9.08516 36234 ft 438 kts 10°
2026-04-21 18:28 49.86680 9.10433 36230 ft 438 kts 10°
2026-04-21 18:28 49.92653 9.12337 36238 ft 438 kts 10°
2026-04-21 18:29 49.98619 9.14251 36239 ft 438 kts 10°
2026-04-21 18:29 50.04550 9.16167 36238 ft 438 kts 10°
2026-04-21 18:30 50.10517 9.18102 36241 ft 438 kts 11°
2026-04-21 18:30 50.16484 9.20033 36246 ft 437 kts 11°
2026-04-21 18:31 50.22448 9.21967 36246 ft 438 kts 11°
2026-04-21 18:31 50.28417 9.23912 36249 ft 438 kts 11°
2026-04-21 18:32 50.33378 9.25533 36252 ft 438 kts 11°
2026-04-21 18:32 50.40325 9.27812 36251 ft 438 kts 11°
2026-04-21 18:33 50.45338 9.29455 36256 ft 438 kts 11°
2026-04-21 18:33 50.51273 9.31405 36252 ft 438 kts 12°
2026-04-21 18:34 50.57249 9.33381 36254 ft 438 kts 12°
2026-04-21 18:34 50.63226 9.35361 36262 ft 438 kts 12°
2026-04-21 18:35 50.69197 9.37344 36262 ft 438 kts 12°
2026-04-21 18:35 50.75169 9.39331 36260 ft 438 kts 12°
2026-04-21 18:36 50.81144 9.41329 36263 ft 438 kts 12°
2026-04-21 18:36 50.87077 9.43310 36270 ft 438 kts 12°
2026-04-21 18:37 50.93052 9.45306 36267 ft 438 kts 12°
2026-04-21 18:37 50.99027 9.47308 36269 ft 438 kts 12°
2026-04-21 18:38 51.04996 9.49311 36276 ft 438 kts 12°
2026-04-21 18:38 51.10923 9.51318 36271 ft 438 kts 12°
2026-04-21 18:39 51.16885 9.53339 36274 ft 438 kts 12°
2026-04-21 18:39 51.22853 9.55366 36273 ft 438 kts 13°
2026-04-21 18:40 51.28821 9.57391 36276 ft 438 kts 13°
2026-04-21 18:40 51.33780 9.59080 36277 ft 438 kts 13°
2026-04-21 18:41 51.40764 9.61481 36273 ft 438 kts 13°
2026-04-21 18:41 51.46693 9.63521 36278 ft 438 kts 13°
2026-04-21 18:42 51.52658 9.65574 36280 ft 438 kts 13°
2026-04-21 18:42 51.58623 9.67621 36284 ft 438 kts 13°
2026-04-21 18:43 51.64585 9.69673 36282 ft 438 kts 13°
2026-04-21 18:43 51.70543 9.71737 36296 ft 437 kts 14°
2026-04-21 18:44 51.76463 9.73807 36295 ft 437 kts 14°
2026-04-21 18:44 51.82409 9.75886 36300 ft 437 kts 14°
2026-04-21 18:45 51.88283 9.77937 36294 ft 437 kts 14°
2026-04-21 18:45 51.94217 9.80010 36301 ft 435 kts 14°
2026-04-21 18:46 52.00144 9.82096 36305 ft 435 kts 14°
2026-04-21 18:46 52.06031 9.84168 36313 ft 436 kts 14°
2026-04-21 18:47 52.11956 9.86261 36240 ft 435 kts 15°
2026-04-21 18:47 52.14925 9.87316 35745 ft 435 kts 15°
2026-04-21 18:47 52.17874 9.88363 35264 ft 433 kts 15°
2026-04-21 18:47 52.20812 9.89404 34787 ft 431 kts 16°
2026-04-21 18:48 52.23721 9.90435 34315 ft 424 kts 16°
2026-04-21 18:48 52.26589 9.91454 33763 ft 418 kts 17°
2026-04-21 18:48 52.29419 9.92462 33201 ft 413 kts 17°
2026-04-21 18:48 52.32252 9.93478 32676 ft 423 kts 17°
2026-04-21 18:49 52.35154 9.94528 32128 ft 429 kts 17°
2026-04-21 18:49 52.38077 9.95582 31609 ft 430 kts 17°
2026-04-21 18:49 52.40017 9.96278 31275 ft 431 kts 17°
2026-04-21 18:49 52.43876 9.97654 30631 ft 422 kts 17°
2026-04-21 18:50 52.46730 9.98668 30086 ft 414 kts 17°
2026-04-21 18:50 52.49521 9.99663 29512 ft 407 kts 18°
2026-04-21 18:50 52.52264 10.00648 28943 ft 401 kts 18°
2026-04-21 18:50 52.54972 10.01625 28385 ft 395 kts 18°
2026-04-21 18:51 52.57629 10.02652 27838 ft 388 kts 19°
2026-04-21 18:51 52.60207 10.03765 27280 ft 383 kts 21°
2026-04-21 18:51 52.62763 10.04935 26765 ft 378 kts 21°
2026-04-21 18:51 52.65279 10.06110 26251 ft 373 kts 21°
2026-04-21 18:52 52.67769 10.07269 25741 ft 369 kts 21°
2026-04-21 18:52 52.70233 10.08404 25245 ft 366 kts 21°
2026-04-21 18:52 52.72681 10.09518 24752 ft 363 kts 21°
2026-04-21 18:52 52.75103 10.10611 24272 ft 360 kts 21°
2026-04-21 18:53 52.77543 10.11547 23780 ft 361 kts 14°
2026-04-21 18:53 52.80023 10.11869 23222 ft 364 kts
2026-04-21 18:53 52.82551 10.11938 22651 ft 362 kts
2026-04-21 18:53 52.85065 10.12014 22098 ft 360 kts
2026-04-21 18:54 52.87557 10.12095 21560 ft 358 kts
2026-04-21 18:54 52.90040 10.12176 21036 ft 356 kts
2026-04-21 18:54 52.92514 10.12259 20522 ft 354 kts
2026-04-21 18:54 52.94955 10.12341 20235 ft 346 kts
2026-04-21 18:55 52.96537 10.12392 20068 ft 340 kts
2026-04-21 18:55 52.99659 10.12487 19734 ft 330 kts
2026-04-21 18:55 53.01924 10.12559 19467 ft 323 kts
2026-04-21 18:55 53.04141 10.12636 19029 ft 323 kts
2026-04-21 18:56 53.06382 10.12715 18655 ft 320 kts
2026-04-21 18:56 53.08611 10.12791 18232 ft 319 kts
2026-04-21 18:56 53.10829 10.12867 17731 ft 319 kts
2026-04-21 18:56 53.13027 10.12941 17443 ft 313 kts
2026-04-21 18:57 53.15209 10.13012 17002 ft 313 kts
2026-04-21 18:57 53.17379 10.13085 16611 ft 311 kts
2026-04-21 18:57 53.19535 10.13158 16238 ft 309 kts
2026-04-21 18:57 53.21682 10.13228 15866 ft 307 kts
2026-04-21 18:58 53.23814 10.13298 15503 ft 305 kts
2026-04-21 18:58 53.25933 10.13368 15141 ft 304 kts
2026-04-21 18:58 53.28039 10.13441 14790 ft 302 kts
2026-04-21 18:58 53.30136 10.13515 14441 ft 300 kts
2026-04-21 18:59 53.32228 10.13516 13835 ft 308 kts 358°
2026-04-21 18:59 53.34337 10.12404 12908 ft 331 kts 334°
2026-04-21 18:59 53.36139 10.09835 12020 ft 350 kts 310°
2026-04-21 18:59 53.37250 10.06191 11407 ft 357 kts 288°
2026-04-21 19:00 53.37493 10.02071 10861 ft 358 kts 268°
2026-04-21 19:00 53.37255 9.97965 10602 ft 347 kts 264°
2026-04-21 19:00 53.36983 9.94023 10465 ft 334 kts 264°
2026-04-21 19:00 53.36716 9.90241 10330 ft 321 kts 264°
2026-04-21 19:01 53.36454 9.86592 10196 ft 310 kts 264°
2026-04-21 19:01 53.36198 9.83050 9901 ft 304 kts 264°
2026-04-21 19:01 53.35947 9.79591 9524 ft 302 kts 264°
2026-04-21 19:01 53.35694 9.76115 9129 ft 300 kts 264°
2026-04-21 19:02 53.35444 9.72664 8731 ft 298 kts 264°
2026-04-21 19:02 53.35194 9.69229 8340 ft 296 kts 264°
2026-04-21 19:02 53.34947 9.65813 7941 ft 294 kts 264°
2026-04-21 19:02 53.34702 9.62434 7546 ft 292 kts 264°
2026-04-21 19:03 53.34482 9.59069 7143 ft 289 kts 270°
2026-04-21 19:03 53.34848 9.55834 6758 ft 281 kts 298°
2026-04-21 19:03 53.36012 9.53323 6330 ft 270 kts 327°
2026-04-21 19:03 53.37688 9.52153 5886 ft 259 kts 357°
2026-04-21 19:04 53.39432 9.52540 5435 ft 251 kts 26°
2026-04-21 19:04 53.40811 9.54253 4983 ft 247 kts 50°
2026-04-21 19:04 53.41916 9.56453 4473 ft 248 kts 51°
2026-04-21 19:04 53.43021 9.58672 4064 ft 246 kts 51°
2026-04-21 19:05 53.44123 9.60869 4030 ft 248 kts 51°
2026-04-21 19:05 53.45236 9.63086 4031 ft 249 kts 51°
2026-04-21 19:05 53.46350 9.65306 4036 ft 249 kts 51°
2026-04-21 19:05 53.47466 9.67533 4034 ft 249 kts 51°
2026-04-21 19:06 53.48580 9.69759 4040 ft 249 kts 51°
2026-04-21 19:06 53.49696 9.71990 3884 ft 249 kts 51°
2026-04-21 19:06 53.50792 9.74183 3582 ft 248 kts 51°
2026-04-21 19:06 53.51916 9.76435 3241 ft 248 kts 51°
2026-04-21 19:07 53.53000 9.78608 2904 ft 245 kts 51°
2026-04-21 19:07 53.54079 9.80771 2573 ft 232 kts 51°
2026-04-21 19:07 53.55074 9.82768 2257 ft 213 kts 52°
2026-04-21 19:07 53.55987 9.84602 1975 ft 197 kts 51°
2026-04-21 19:08 53.56836 9.86310 1710 ft 184 kts 51°
2026-04-21 19:08 53.57628 9.87905 1489 ft 170 kts 51°
2026-04-21 19:08 53.58359 9.89378 1246 ft 158 kts 51°
2026-04-21 19:08 53.59037 9.90744 977 ft 146 kts 51°
2026-04-21 19:09 53.59649 9.91976 793 ft 131 kts 51°
2026-04-21 19:09 53.60215 9.93124 635 ft 125 kts 49°
2026-04-21 19:09 53.60775 9.94255 470 ft 125 kts 49°
2026-04-21 19:09 53.61344 9.95389 292 ft 126 kts 51°
2026-04-21 19:10 53.61896 9.96520 106 ft 125 kts 50°
2026-04-21 19:10 53.62411 9.97562 52 ft 96 kts 50°
2026-04-21 19:10 53.62730 9.98204 53 ft 50 kts 48°
2026-04-21 19:10 53.62926 9.98592 51 ft 40 kts 51°
2026-04-21 19:11 53.63095 9.98944 53 ft 40 kts 51°
2026-04-21 19:11 53.63256 9.99282 54 ft 25 kts 60°
2026-04-21 19:11 53.63291 9.99490 51 ft 15 kts 94°
2026-04-21 19:11 53.63275 9.99654 51 ft 6 kts 99°
2026-04-21 19:12 53.63265 9.99713 49 ft 10 kts 118°
2026-04-21 19:12 53.63194 9.99785 51 ft 9 kts 152°
2026-04-21 19:12 53.63134 9.99837 51 ft 14 kts 153°
2026-04-21 19:12 53.63013 9.99941 51 ft 23 kts 153°
2026-04-21 19:13 53.62884 10.00054 51 ft 12 kts 157°
2026-04-21 19:13 53.62821 10.00120 51 ft 8 kts 116°
2026-04-21 19:13 53.62832 10.00188 50 ft 2 kts 62°
2026-04-21 19:13 53.62838 10.00206 51 ft 1 kts 61°
2026-04-21 19:14 53.62838 10.00207 51 ft 0 kts 61°